This demonstration page uses our WeatherBlox Daily Observations layout. Learn more.

40.92945, -100.16068

Hourly Observations for October 20, 2019

Temp ( °F °C ) Dew Point ( °F °C ) Humidity (%) Winds ( mph kmh ) Pressure ( in mb ) Visibility ( mi km ) Precip ( " mm )
12:15 am 00:15 Clear 45 7.3 30 -1.2 55 55 SE 7 11 29.75 1007 10 16.0934 0 0
12:35 am 00:35 Clear 45 7 31 -0.6 59 59 SSE 6 9 29.75 1007 10 16.0934 0 0
12:55 am 00:55 Clear 45 7 32 -0.1 61 61 SSE 8 13 29.75 1007 10 16.0934 0 0
1:15 am 01:15 Clear 46 7.6 33 0.3 60 60 SE 7 11 29.73 1007 10 16.0934 0 0
1:35 am 01:35 Clear 45 7.4 33 0.7 63 63 ESE 7 11 29.73 1007 10 16.0934 0 0
1:55 am 01:55 Clear 47 8.3 34 1.2 61 61 SE 9 15 29.71 1006 10 16.0934 0 0
2:15 am 02:15 Clear 48 8.9 35 1.4 60 60 SE 12 19 29.7 1006 10 16.0934 0 0
2:35 am 02:35 Clear 48 8.9 35 1.4 60 60 SE 13 20 29.69 1005 10 16.0934 0 0
2:55 am 02:55 Clear 45 7.4 34 1.2 65 65 SSE 10 17 29.7 1006 10 16.0934 0 0
3:15 am 03:15 Clear 49 9.7 35 1.5 57 57 SSE 18 30 29.66 1005 10 16.0934 0 0
3:35 am 03:35 Clear 49 9.5 35 1.5 58 58 SSE 17 28 29.66 1004 10 16.0934 0 0
3:55 am 03:55 Clear 49 9.6 35 1.5 57 57 SSE 16 26 29.63 1004 10 16.0934 0 0
4:15 am 04:15 Clear 50 10 34 1.2 55 55 SSE 17 28 29.63 1003 10 16.0934 0 0
4:35 am 04:35 Clear 51 10.3 34 1.2 54 54 SSE 18 30 29.62 1003 10 16.0934 0 0
4:55 am 04:55 Clear 51 10.5 34 1.2 53 53 SSE 17 28 29.61 1003 10 16.0934 0 0
5:15 am 05:15 Clear 51 10.6 34 1.2 53 53 SSE 18 30 29.61 1003 10 16.0934 0 0
5:35 am 05:35 Clear 50 10.2 35 1.5 55 55 SSE 20 31 29.61 1003 10 16.0934 0 0
5:55 am 05:55 Clear 50 10 35 1.5 56 56 SSE 15 24 29.6 1002 10 16.0934 0 0
6:15 am 06:15 Clear 49 9.6 35 1.8 59 59 SE 14 22 29.59 1002 10 16.0934 0 0
6:35 am 06:35 Clear 49 9.5 35 1.7 59 59 SSE 16 26 29.6 1002 10 16.0934 0 0
6:55 am 06:55 Clear 50 9.8 35 1.8 58 58 SSE 16 26 29.59 1002 10 16.0934 0 0
7:15 am 07:15 Clear 50 9.9 35 1.9 58 58 SSE 15 24 29.58 1002 10 16.0934 0 0
7:35 am 07:35 Clear 50 10 36 2 58 58 SSE 12 19 29.59 1002 10 16.0934 0 0
7:55 am 07:55 Clear 52 11 36 2 54 54 SSE 17 28 29.58 1002 10 16.0934 0 0
8:15 am 08:15 Sunny 52 11.2 36 2.1 54 54 S 18 30 29.58 1002 10 16.0934 0 0
8:35 am 08:35 Sunny 52 11 36 2.3 55 55 S 16 26 29.6 1002 10 16.0934 0 0
8:55 am 08:55 Sunny 51 10.8 37 2.6 57 57 S 12 19 29.6 1002 10 16.0934 0 0
9:15 am 09:15 Sunny 53 11.4 37 2.9 56 56 S 10 17 29.6 1002 10 16.0934 0 0
9:30 am 09:30 Sunny 54 12 37 3 54 54 S 14 22 29.59 1002 10 16.0934 0 0
9:55 am 09:55 Sunny 54 12.2 38 3.3 55 55 S 16 26 29.6 1002 10 16.0934 0 0
10:15 am 10:15 Sunny 55 12.5 38 3.6 55 55 S 18 30 29.59 1002 10 16.0934 0 0
10:35 am 10:35 Sunny 55 13 39 4 55 55 S 18 30 29.58 1002 10 16.0934 0 0
10:55 am 10:55 Sunny 56 13.2 39 4.1 54 54 S 21 33 29.57 1001 10 16.0934 0 0
11:15 am 11:15 Sunny 57 13.7 40 4.3 53 53 S 16 26 29.57 1001 10 16.0934 0 0
11:35 am 11:35 Sunny 58 14.3 39 4 50 50 SSW 18 30 29.56 1001 10 16.0934 0 0
11:55 am 11:55 Partly Cloudy 57 14.1 38 3.2 48 48 SW 14 22 29.55 1001 10 16.0934 0 0
12:15 pm 12:15 Partly Cloudy 57 13.7 35 1.8 45 45 WSW 10 17 29.57 1001 10 16.0934 0 0
12:35 pm 12:35 Sunny 57 14 32 0.1 39 39 WNW 15 24 29.57 1001 10 16.0934 0 0
12:55 pm 12:55 Sunny 58 14.4 31 -0.8 35 35 WNW 13 20 29.55 1001 10 16.0934 0 0
1:15 pm 13:15 Sunny 58 14.6 28 -2.1 32 32 WNW 14 22 29.54 1000 10 16.0934 0 0
1:35 pm 13:35 Sunny 59 14.8 27 -2.6 30 30 WNW 12 19 29.55 1001 10 16.0934 0 0
1:55 pm 13:55 Sunny 59 15.2 28 -2.4 30 30 WNW 14 22 29.53 1000 10 16.0934 0 0
2:15 pm 14:15 Sunny 59 15.2 27 -3 29 29 WNW 12 19 29.52 1000 10 16.0934 0 0
2:35 pm 14:35 Sunny 61 15.9 27 -2.7 28 28 W 12 19 29.51 999 10 16.0934 0 0
2:55 pm 14:55 Sunny 63 17 26 -3.6 24 24 W 22 35 29.5 999 10 16.0934 0 0
3:15 pm 15:15 Sunny 62 16.8 22 -5.3 22 22 WSW 22 35 29.5 999 10 16.0934 0 0
3:35 pm 15:35 Sunny 62 16.4 22 -5.6 22 22 WSW 18 30 29.49 999 10 16.0934 0 0
3:55 pm 15:55 Partly Cloudy 60 15.5 22 -5.6 23 23 SW 13 20 29.49 999 10 16.0934 0 0
4:15 pm 16:15 Cloudy 58 14.6 22 -5.6 24 24 SW 15 24 29.51 999 10 16.0934 0 0
4:35 pm 16:35 Mostly Cloudy 57 13.8 22 -5.3 26 26 WSW 17 28 29.54 1000 10 16.0934 0 0
4:55 pm 16:55 Sunny 58 14.3 24 -4.7 27 27 WSW 12 19 29.52 1000 10 16.0934 0 0
5:15 pm 17:15 Sunny 59 14.8 23 -5 25 25 WSW 12 19 29.52 1000 10 16.0934 0 0
5:35 pm 17:35 Sunny 59 14.8 23 -5.1 25 25 SW 12 19 29.51 999 10 16.0934 0 0
5:55 pm 17:55 Sunny 58 14.7 23 -5 25 25 WSW 17 28 29.51 999 10 16.0934 0 0
6:15 pm 18:15 Sunny 57 14 24 -4.5 28 28 WSW 13 20 29.52 999 10 16.0934 0 0
6:35 pm 18:35 Mostly Cloudy 57 14 24 -4.5 28 28 WSW 13 20 29.52 999 10 16.0934 0 0
6:55 pm 18:55 Mostly Cloudy 55 12.8 27 -2.8 34 34 WSW 14 22 29.54 1000 10 16.0934 0 0
7:15 pm 19:15 Partly Cloudy 53 11.8 29 -1.8 39 39 WSW 13 20 29.55 1001 10 16.0934 0 0
7:35 pm 19:35 Clear 52 11.1 30 -1 43 43 W 18 30 29.56 1001 10 16.0934 0 0
7:55 pm 19:55 Clear 50 10.2 31 -0.7 47 47 WSW 10 17 29.56 1001 10 16.0934 0 0
8:15 pm 20:15 Clear 49 9.6 31 -0.5 50 50 WSW 12 19 29.56 1001 10 16.0934 0 0
8:35 pm 20:35 Clear 48 8.9 31 -0.3 53 53 WSW 9 15 29.57 1001 10 16.0934 0 0
8:55 pm 20:55 Clear 47 8.6 32 0 55 55 WSW 12 19 29.57 1001 10 16.0934 0 0
9:15 pm 21:15 Partly Cloudy 47 8.4 32 0.2 57 57 WSW 12 19 29.59 1002 10 16.0934 0 0
9:35 pm 21:35 Partly Cloudy 46 7.8 33 0.5 60 60 WSW 9 15 29.59 1002 10 16.0934 0 0
9:55 pm 21:55 Mostly Cloudy 46 8 33 0.4 59 59 W 20 31 29.59 1002 10 16.0934 0 0
10:15 pm 22:15 Cloudy 46 7.8 33 0.6 61 61 W 17 28 29.59 1002 10 16.0934 0 0
10:35 pm 22:35 Cloudy 46 7.7 34 1.1 63 63 W 22 35 29.59 1002 10 16.0934 0 0
10:55 pm 22:55 Cloudy 46 7.6 35 1.7 67 67 WNW 24 39 29.59 1002 10 16.0934 0 0
11:15 pm 23:15 Cloudy 45 7.4 36 2 69 69 WNW 24 39 29.6 1002 10 16.0934 0 0
11:35 pm 23:35 Cloudy 45 7 35 1.7 69 69 WNW 29 46 29.59 1002 10 16.0934 0 0
11:55 pm 23:55 Cloudy 43 6.2 34 1 70 70 WNW 25 41 29.6 1002 10 16.0934 0 0

Powered by AerisWeather